Weather History for KORH - February, 2013

Change the Weather History Date:

Monday, February 25, 2013

  Actual Average Record
Temperature  
Mean Temperature 31 °F 29 °F  
Max Temperature 35 °F 37 °F 64 °F (1976)
Min Temperature 27 °F 21 °F -7 °F (1894)
Degree Days  
Heating Degree Days 34 36  
Month to date heating degree days 957 957  
Since 1 July heating degree days 4348 4730  
Cooling Degree Days 0 0  
Month to date cooling degree days 0 0  
Year to date cooling degree days 0 0  
Moisture  
Dew Point 28 °F    
Average Humidity 84    
Maximum Humidity 92    
Minimum Humidity 75    
Precipitation  
Precipitation T in 0.12 in 2.04 in (1965)
Month to date precipitation 3.68 2.85  
Year to date precipitation 5.63 6.34  
Snow  
Snow 0.00 in 0.50 in 13.70 in (1966)
Month to date snowfall 42.0 14.1  
Since 1 July snowfall 75.6 48.4  
Snow Depth 0.00 in    
Sea Level Pressure  
Sea Level Pressure 30.05 in    
Wind  
Wind Speed 7 mph (NW)    
Max Wind Speed 16 mph    
Max Gust Speed 22 mph    
Visibility 9 miles    
Events Snow    
T = Trace of Precipitation, MM = Missing Value Source: NWS Daily Summary

Daily Weather History Graph

Daily Weather History Graph

Search for Another Location

Airport or City:

Trip Planner

Search our weather history database for the weather conditions in past years. The results will help you decide how hot, cold, wet, or windy it might be!

Date:

Astronomy

Feb. 25, 2013 Rise Set
Actual Time 6:28 AM EST 5:32 PM EST
Civil Twilight 6:00 AM EST 6:01 PM EST
Nautical Twilight 5:28 AM EST 6:33 PM EST
Astronomical Twilight 4:55 AM EST 7:06 PM EST
Moon 5:44 PM EST (2/25) 5:56 AM EST (2/25)
Length of Visible Light 12h 00m
Length of Day
11h 04m
Full, 100% of the Moon is Illuminated
Feb 25
Full
Feb 25
Full
Mar 4
Last Quarter
Mar 11
New
Mar 19
First Quarter

Hourly Weather History & Observations

Time (EST) Temp. Windchill Dew Point Humidity Pressure Visibility Wind Dir Wind Speed Gust Speed Precip Events Conditions
12:01 AM 30.0 °F 25.2 °F 28.9 °F 96% 29.85 in 2.0 mi NNE 4.6 mph - 0.01 in Snow Light Snow
12:14 AM 30.0 °F - 28.9 °F 96% 29.86 in 2.5 mi Calm Calm - 0.01 in Snow Light Snow
12:39 AM 30.0 °F - 28.9 °F 96% 29.87 in 2.0 mi Calm Calm - 0.01 in Snow Light Snow
12:50 AM 30.2 °F 24.3 °F 28.4 °F 93% 29.87 in 2.5 mi NNW 5.8 mph - 0.01 in Snow Light Snow
12:54 AM 30.0 °F 23.2 °F 28.0 °F 92% 29.91 in 3.0 mi NNW 6.9 mph - 0.01 in Snow Light Snow
1:03 AM 30.0 °F 23.2 °F 28.0 °F 92% 29.88 in 5.0 mi NNW 6.9 mph - 0.00 in Snow Light Snow
1:26 AM 30.0 °F 21.1 °F 27.0 °F 88% 29.88 in 10.0 mi NNW 10.4 mph - 0.00 in   Overcast
1:54 AM 30.0 °F 21.7 °F 27.0 °F 88% 29.93 in 10.0 mi NNW 9.2 mph 18.4 mph 0.00 in   Overcast
2:43 AM 30.0 °F 20.5 °F 27.0 °F 88% 29.89 in 10.0 mi NNW 11.5 mph 20.7 mph N/A   Scattered Clouds
2:54 AM 30.0 °F 20.5 °F 26.1 °F 85% 29.93 in 10.0 mi NNW 11.5 mph 20.7 mph N/A   Partly Cloudy
3:54 AM 28.9 °F 18.6 °F 26.1 °F 89% 29.95 in 10.0 mi NNW 12.7 mph 20.7 mph N/A   Mostly Cloudy
4:54 AM 28.9 °F 19.2 °F 25.0 °F 85% 29.97 in 10.0 mi North 11.5 mph - N/A   Scattered Clouds
5:54 AM 28.0 °F 19.3 °F 25.0 °F 88% 30.00 in 10.0 mi NNW 9.2 mph - N/A   Clear
6:54 AM 27.0 °F 18.0 °F 24.1 °F 89% 30.02 in 10.0 mi NW 9.2 mph - N/A   Clear
7:54 AM 30.0 °F 22.4 °F 25.0 °F 82% 30.04 in 10.0 mi NNW 8.1 mph - N/A   Clear
8:54 AM 32.0 °F 24.8 °F 27.0 °F 82% 30.06 in 10.0 mi NNW 8.1 mph - N/A   Clear
9:54 AM 34.0 °F 27.2 °F 28.0 °F 79% 30.09 in 10.0 mi North 8.1 mph - N/A   Partly Cloudy
10:45 AM 35.1 °F 29.3 °F 28.9 °F 78% 30.05 in 10.0 mi North 6.9 mph - N/A   Overcast
10:54 AM 35.1 °F 30.1 °F 28.9 °F 78% 30.08 in 10.0 mi NNE 5.8 mph - N/A   Overcast
11:54 AM 35.1 °F 32.2 °F 28.9 °F 78% 30.10 in 10.0 mi NNE 3.5 mph - N/A   Overcast
12:54 PM 34.0 °F 28.0 °F 28.9 °F 82% 30.12 in 10.0 mi West 6.9 mph - N/A   Overcast
1:54 PM 34.0 °F 26.6 °F 28.9 °F 82% 30.13 in 10.0 mi WNW 9.2 mph - N/A   Overcast
2:54 PM 33.1 °F 24.9 °F 28.9 °F 85% 30.15 in 10.0 mi WNW 10.4 mph - N/A   Overcast
3:54 PM 34.0 °F 28.8 °F 28.0 °F 79% 30.15 in 10.0 mi NNW 5.8 mph - N/A   Overcast
4:07 PM 35.1 °F 30.1 °F 28.0 °F 76% 30.11 in 10.0 mi NW 5.8 mph - N/A   Overcast
4:54 PM 34.0 °F 29.8 °F 28.0 °F 79% 30.17 in 10.0 mi NNW 4.6 mph - N/A   Overcast
5:54 PM 34.0 °F 29.8 °F 28.0 °F 79% 30.18 in 10.0 mi NNW 4.6 mph - N/A   Overcast
6:54 PM 33.1 °F 28.7 °F 28.9 °F 85% 30.21 in 10.0 mi NW 4.6 mph - N/A   Overcast
7:54 PM 33.1 °F 28.7 °F 30.0 °F 89% 30.22 in 10.0 mi WNW 4.6 mph - N/A   Overcast
8:54 PM 33.1 °F 28.7 °F 30.0 °F 89% 30.22 in 10.0 mi WNW 4.6 mph - N/A   Overcast
9:19 PM 32.0 °F - 28.9 °F 88% 30.17 in 10.0 mi Calm Calm - N/A   Overcast
9:32 PM 32.0 °F 27.5 °F 28.9 °F 88% 30.18 in 10.0 mi West 4.6 mph - N/A   Overcast
9:54 PM 32.0 °F 27.5 °F 28.9 °F 88% 30.22 in 10.0 mi West 4.6 mph - N/A   Overcast
10:54 PM 32.0 °F 28.7 °F 28.9 °F 88% 30.22 in 10.0 mi WSW 3.5 mph - N/A   Overcast
11:54 PM 32.0 °F 26.4 °F 28.9 °F 88% 30.24 in 10.0 mi WSW 5.8 mph - N/A   Overcast